[[{"header":{"parameterUnit":"m.s-1","parameterCategory":1,"la1":30.2991,"la2":30.254,"lo1":-89.0895,"lo2":-89.0444,"dy":0.0017,"dx":0.0017,"nx":28,"ny":28,"refTime":"2023-09-20T21:00:00:Z","depth":0,"parameterNumber":2,"parameterNumberName":"U-component_of_WINDS"},"data":[0,0,0,0,0,0,0,0,0,0,0,0,0,0,0,0,0,0,0,0,0,0,0,0,0,0,0,0,0,0,0,0,0,0,0,0,0,0,0,0,0,0,0,0,0,0,0,0,0,0,0,0,0,0,0,0,0,0,-4.1853,-4.1856,0,-4.2181,-4.2185,-4.2189,-4.222,-4.2216,-4.2213,-4.2209,-4.2549,-4.2561,-4.2573,0,0,0,0,0,0,0,0,0,0,0,0,0,-4.1254,-4.1265,-4.1852,-4.1857,-4.1861,-4.2181,-4.2185,-4.219,-4.222,-4.2216,-4.2212,-4.2208,-4.2545,-4.2559,-4.2574,0,0,0,0,0,0,0,0,0,0,0,0,0,-4.1541,-4.1268,-4.1852,-4.1914,-4.1923,-4.218,-4.2185,-4.2191,-4.2221,-4.2216,-4.2211,-4.2206,-4.254,-4.2558,-4.2576,-4.2794,0,0,-4.2632,-4.264,0,0,0,0,0,0,0,0,-4.1525,-4.1563,-4.1901,-4.1911,-4.1921,-4.2154,-4.2099,-4.2393,-4.2222,-4.2108,-4.2209,-4.2203,-4.2422,-4.245,-4.2523,-4.281,-4.2824,-4.2634,-4.2645,-4.2653,-4.2658,0,0,0,0,0,0,0,-4.1505,-4.155,-4.1983,-4.1906,-4.1918,-4.1927,-4.1962,-4.2155,-4.229,-4.2118,-4.2121,-4.2159,-4.2426,-4.2505,-4.2531,-4.2829,-4.2633,-4.265,-4.2661,-4.2668,-4.3311,-4.3317,0,0,0,0,0,0,-4.1473,-4.1533,-4.1972,-4.1993,-4.1706,-4.1942,-4.1981,-4.2085,-4.2288,-4.2314,-4.2163,-4.2159,-4.2476,-4.2509,-4.2543,-4.2812,-4.2653,-4.267,-4.2681,-4.3305,-4.3313,-4.3319,0,0,0,0,0,0,-4.146,-4.1512,-4.1959,-4.1764,-4.1821,-4.1958,-4.2074,-4.2094,-4.2172,-4.2322,-4.2347,-4.2218,-4.2473,-4.2517,-4.2731,-4.2824,-4.2678,-4.2695,-4.3298,-4.3308,-4.3316,-4.335,0,0,0,0,0,0,-4.1443,-4.1507,-4.1591,-4.1765,-4.1831,-4.2141,-4.2079,-4.2104,-4.2204,-4.2202,-4.2381,-4.2406,-4.2473,-4.2703,-4.2749,-4.2846,-4.2709,-4.3291,-4.3302,-4.3313,-4.3341,-4.3359,-4.3374,0,0,0,0,0,-4.1421,-4.1588,-4.1595,-4.1648,-4.1938,-4.2146,-4.2184,-4.2257,-4.2211,-4.2297,-4.2393,-4.24,-4.2806,-4.2725,-4.2777,-4.2881,-4.3285,-4.3299,-4.3312,-4.3333,-4.3355,-4.3374,0,0,0,0,0,0,-4.1421,-4.1612,-4.1622,-4.1849,-4.1981,-4.2151,-4.2261,-4.2278,-4.2426,-4.2418,-4.2503,-4.2543,-4.2754,-4.2839,-4.2745,-4.3103,-4.3041,-4.3066,-4.3039,-4.3061,-4.3077,-4.3053,-4.2725,0,0,0,0,0,-4.1448,-4.1599,-4.1758,-4.1943,-4.2009,-4.2123,-4.2216,-4.2261,-4.2401,-4.2458,-4.257,-4.2707,-4.2865,-4.2968,-4.3122,-4.3353,-4.3393,-4.3451,-4.3467,-4.348,-4.35,-4.3629,-4.3657,-4.3364,-4.3364,-4.3364,0,0,-4.1504,-4.1627,-4.1717,-4.1946,-4.2054,-4.221,-4.217,-4.2337,-4.2454,-4.2484,-4.2692,-4.2779,-4.2938,-4.3161,-4.3265,-4.3238,-4.359,-4.3497,-4.3506,-4.352,-4.3646,-4.3674,-4.3698,-4.3373,-4.3372,-4.337,0,0,-4.1686,-4.1794,-4.196,-4.2068,-4.2231,-4.2306,-4.2346,-4.2514,-4.2572,-4.2783,-4.2808,-4.2949,-4.322,-4.3332,-4.3425,-4.3649,-4.3661,-4.3697,-4.3784,-4.3908,-4.3931,-4.3952,-4.4033,-4.406,-4.3717,-4.3717,-4.3717,0,-4.1736,-4.1971,-4.2044,-4.221,-4.231,-4.2343,-4.2513,-4.2615,-4.282,-4.2889,-4.2856,-4.3197,-4.3306,-4.3556,-4.3611,-4.3684,-4.3733,-4.3677,-4.3922,-4.3944,-4.3964,-4.4042,-4.4072,-4.372,-4.372,-4.372,-4.3719,0,-4.2024,-4.2186,-4.2301,-4.2497,-4.2611,-4.2777,-4.2877,-4.2983,-4.3018,-4.3096,-4.3311,-4.3443,-4.3624,-4.3687,-4.3723,-4.3943,-4.3921,-4.3904,-4.3844,-4.3994,-4.4068,-4.4099,-4.3725,-4.3724,-4.3723,-4.3722,0,0,-4.2215,-4.2449,-4.249,-4.2579,-4.2761,-4.2889,-4.3058,-4.3234,-4.3324,-4.3465,-4.3609,-4.3837,-4.3823,-4.3928,-4.3977,-4.4086,-4.4256,-4.4056,-4.4061,-4.4089,-4.4507,-4.4518,-4.4551,-4.4265,-4.4271,-4.4276,-4.4493,0,-4.2418,-4.2718,-4.2788,-4.3046,-4.3197,-4.3231,-4.3378,-4.3507,-4.3585,-4.3726,-4.3813,-4.3973,-4.3942,-4.4005,-4.4115,-4.4212,-4.4341,-4.4197,-4.4401,-4.4407,-4.4359,-4.459,-4.4603,-4.4801,-4.4523,-4.4528,-4.4531,0,-4.2694,-4.2839,-4.3111,-4.3274,-4.334,-4.3471,-4.3638,-4.3772,-4.3918,-4.3968,-4.4085,-4.4123,-4.4301,-4.4232,-4.4479,-4.4379,-4.4467,-4.4527,-4.4536,-4.4558,-4.4478,-4.4618,-4.4867,-4.4896,-4.4578,-4.4574,-4.4571,0,-4.2806,-4.307,-4.3267,-4.3343,-4.3537,-4.3628,-4.3713,-4.3854,-4.3956,-4.4103,-4.417,-4.4336,-4.4427,-4.4555,-4.4637,-4.4579,-4.4878,-4.4815,-4.4925,-4.4923,-4.4986,-4.4981,-4.5252,-4.5042,-4.5042,-4.5041,-4.5041,0,-4.3025,-4.319,-4.332,-4.3441,-4.3627,-4.3708,-4.389,-4.3976,-4.4102,-4.4241,-4.4281,-4.4411,-4.4512,-4.4657,-4.4722,-4.4917,-4.4958,-4.5003,-4.5019,-4.5,-4.4994,-4.5058,-4.5046,-4.5049,-4.5048,-4.5046,-4.5045,0,-4.3181,-4.3275,-4.3491,-4.3657,-4.3703,-4.3833,-4.3975,-4.4095,-4.4174,-4.4349,-4.4395,-4.452,-4.4692,-4.4787,-4.5004,-4.5048,-4.5265,-4.5274,-4.5215,-4.5222,-4.5325,-4.5314,-4.5647,-4.5695,-4.5454,-4.5456,-4.5458,0,-4.3314,-4.3442,-4.3621,-4.3716,-4.3802,-4.3956,-4.4059,-4.4144,-4.425,-4.4427,-4.4525,-4.4699,-4.4843,-4.5117,-4.5227,-4.5393,-4.5406,-4.5511,-4.5431,-4.5408,-4.5407,-4.5398,-4.5412,-4.5525,-4.5527,-4.5529,-4.553,0,-4.354,-4.358,-4.3727,-4.3891,-4.4013,-4.4146,-4.4278,-4.4354,-4.4461,-4.4579,-4.4754,-4.4866,-4.5086,-4.5259,-4.5434,-4.5523,-4.5545,-4.5555,-4.5589,-4.557,-4.5531,-4.5553,-4.5253,-4.5547,-4.5545,-4.5544,-4.5543,-4.5542,-4.3689,-4.3804,-4.3947,-4.411,-4.4218,-4.4341,-4.4461,-4.4555,-4.4702,-4.4887,-4.4929,-4.5114,-4.5258,-4.5495,-4.5589,-4.5736,-4.5716,-4.5765,-4.5778,-4.5788,-4.5792,-4.5508,-4.5768,-4.5768,-4.5768,-4.5767,-4.5767,0,-4.3917,-4.4011,-4.4159,-4.4342,-4.447,-4.4479,-4.4626,-4.4732,-4.4895,-4.5027,-4.5167,-4.5369,-4.5537,-4.5661,-4.5832,-4.5926,-4.5941,-4.5968,-4.5962,-4.5982,-4.58,-4.5754,-4.5954,-4.5954,-4.5954,-4.5954,-4.5954,-4.5953,-4.405,-4.4245,-4.4302,-4.4551,-4.4644,-4.4825,-4.4908,-4.5022,-4.5127,-4.5351,-4.549,-4.5569,-4.5699,-4.588,-4.6034,-4.6067,-4.6128,-4.6154,-4.6188,-4.6015,-4.5995,-4.5976,-4.5933,-4.6167,-4.6167,-4.6358,-4.6359,-4.6361]},{"header":{"parameterUnit":"m.s-1","parameterCategory":1,"la1":30.2991,"la2":30.254,"lo1":-89.0895,"lo2":-89.0444,"dy":0.0017,"dx":0.0017,"nx":28,"ny":28,"refTime":"2023-09-20T21:00:00:Z","depth":0,"parameterNumber":3,"parameterNumberName":"V-component_of_WINDS"},"data":[0,0,0,0,0,0,0,0,0,0,0,0,0,0,0,0,0,0,0,0,0,0,0,0,0,0,0,0,0,0,0,0,0,0,0,0,0,0,0,0,0,0,0,0,0,0,0,0,0,0,0,0,0,0,0,0,0,0,-1.1882,-1.1884,0,-1.2064,-1.2066,-1.2068,-1.2141,-1.2141,-1.214,-1.214,-1.2328,-1.2333,-1.2339,0,0,0,0,0,0,0,0,0,0,0,0,0,-1.16,-1.1605,-1.1882,-1.1884,-1.1887,-1.2063,-1.2066,-1.2068,-1.2141,-1.2141,-1.214,-1.214,-1.2326,-1.2333,-1.2339,0,0,0,0,0,0,0,0,0,0,0,0,0,-1.1746,-1.1606,-1.1882,-1.1944,-1.1952,-1.2063,-1.2066,-1.2069,-1.2141,-1.2141,-1.214,-1.214,-1.2324,-1.2332,-1.234,-1.2403,0,0,-1.2365,-1.2368,0,0,0,0,0,0,0,0,-1.1738,-1.1756,-1.1933,-1.194,-1.1949,-1.2079,-1.2036,-1.2181,-1.2142,-1.2069,-1.214,-1.2139,-1.2246,-1.226,-1.2296,-1.2412,-1.242,-1.2366,-1.237,-1.2374,-1.2376,0,0,0,0,0,0,0,-1.1727,-1.1749,-1.1954,-1.1935,-1.1945,-1.1964,-1.1984,-1.2063,-1.2159,-1.2076,-1.2081,-1.2102,-1.225,-1.2288,-1.2301,-1.2423,-1.2365,-1.2373,-1.2378,-1.2381,-1.26,-1.2601,0,0,0,0,0,0,-1.1707,-1.174,-1.1948,-1.1959,-1.1839,-1.1969,-1.1992,-1.2038,-1.2158,-1.2176,-1.2102,-1.2105,-1.2274,-1.2291,-1.2308,-1.239,-1.2374,-1.2382,-1.2386,-1.2599,-1.2601,-1.2602,0,0,0,0,0,0,-1.17,-1.1725,-1.1941,-1.1851,-1.188,-1.1975,-1.2026,-1.2042,-1.208,-1.2179,-1.2196,-1.2123,-1.2275,-1.2296,-1.2379,-1.2398,-1.2385,-1.2393,-1.2598,-1.26,-1.2601,-1.2554,0,0,0,0,0,0,-1.1692,-1.1722,-1.1746,-1.1851,-1.1885,-1.2008,-1.2027,-1.2046,-1.2093,-1.2098,-1.2203,-1.222,-1.2276,-1.2366,-1.2387,-1.2409,-1.2399,-1.2597,-1.2599,-1.2601,-1.2555,-1.2554,-1.2554,0,0,0,0,0,-1.1682,-1.1726,-1.1747,-1.1772,-1.1917,-1.2009,-1.2028,-1.2091,-1.2094,-1.212,-1.2184,-1.2216,-1.2392,-1.2374,-1.2398,-1.2422,-1.2596,-1.2598,-1.26,-1.2555,-1.2554,-1.2554,0,0,0,0,0,0,-1.1622,-1.1741,-1.1766,-1.1846,-1.1917,-1.2021,-1.2056,-1.2089,-1.2161,-1.2162,-1.2238,-1.2261,-1.2337,-1.2388,-1.2366,-1.249,-1.2497,-1.2504,-1.2454,-1.2454,-1.2453,-1.244,-1.2406,0,0,0,0,0,-1.1618,-1.1682,-1.1783,-1.1844,-1.1878,-1.196,-1.2003,-1.2045,-1.2122,-1.2153,-1.2222,-1.2296,-1.2368,-1.2414,-1.2486,-1.2562,-1.2587,-1.2591,-1.259,-1.2589,-1.2595,-1.2639,-1.2643,-1.2609,-1.2609,-1.2609,0,0,-1.1611,-1.1684,-1.172,-1.1834,-1.1894,-1.1959,-1.1985,-1.2053,-1.2102,-1.2163,-1.2245,-1.2299,-1.2386,-1.2466,-1.2505,-1.2511,-1.2609,-1.2592,-1.259,-1.2597,-1.2642,-1.2645,-1.2648,-1.261,-1.261,-1.261,0,0,-1.1631,-1.1692,-1.175,-1.1809,-1.1899,-1.1954,-1.1967,-1.2067,-1.2105,-1.2188,-1.2235,-1.2295,-1.2417,-1.2478,-1.2524,-1.2567,-1.26,-1.2588,-1.2585,-1.2628,-1.2631,-1.2633,-1.2649,-1.2653,-1.2593,-1.2593,-1.2593,0,-1.1611,-1.171,-1.1775,-1.184,-1.1889,-1.1947,-1.2006,-1.206,-1.2169,-1.2202,-1.2207,-1.2362,-1.2425,-1.252,-1.253,-1.2566,-1.2584,-1.2577,-1.2625,-1.2628,-1.2632,-1.2647,-1.2653,-1.2591,-1.2591,-1.2591,-1.2591,0,-1.1681,-1.1749,-1.1784,-1.1887,-1.194,-1.2002,-1.2077,-1.2123,-1.2161,-1.2215,-1.2299,-1.2377,-1.2465,-1.2491,-1.2528,-1.2591,-1.2592,-1.261,-1.2618,-1.2632,-1.2648,-1.2654,-1.2588,-1.2589,-1.2589,-1.259,0,0,-1.1669,-1.1807,-1.1819,-1.1866,-1.197,-1.2024,-1.2088,-1.2174,-1.2212,-1.2285,-1.2342,-1.2443,-1.2461,-1.2513,-1.2559,-1.2596,-1.2625,-1.261,-1.2613,-1.261,-1.2699,-1.2685,-1.2691,-1.2647,-1.2648,-1.265,-1.2692,0,-1.1703,-1.182,-1.188,-1.1972,-1.2036,-1.2091,-1.2147,-1.2217,-1.2269,-1.2332,-1.239,-1.2461,-1.2478,-1.251,-1.255,-1.2613,-1.2644,-1.2611,-1.2701,-1.2703,-1.2677,-1.27,-1.2685,-1.2722,-1.2699,-1.27,-1.2701,0,-1.1758,-1.183,-1.1927,-1.2023,-1.2052,-1.2102,-1.2185,-1.2244,-1.2324,-1.236,-1.2418,-1.2463,-1.2533,-1.2536,-1.2635,-1.2611,-1.2651,-1.2688,-1.2691,-1.2702,-1.2703,-1.2712,-1.2735,-1.274,-1.2711,-1.271,-1.271,0,-1.174,-1.1861,-1.1935,-1.1974,-1.2087,-1.2121,-1.217,-1.225,-1.2297,-1.2371,-1.2402,-1.2483,-1.2527,-1.2589,-1.2654,-1.265,-1.2746,-1.2754,-1.2778,-1.2777,-1.2797,-1.2795,-1.2827,-1.2822,-1.2822,-1.2822,-1.2822,0,-1.1772,-1.1829,-1.1928,-1.1974,-1.204,-1.2109,-1.2173,-1.2227,-1.2297,-1.2355,-1.2407,-1.246,-1.2543,-1.2606,-1.2658,-1.2732,-1.2751,-1.2783,-1.2796,-1.2778,-1.2774,-1.2806,-1.2805,-1.2823,-1.2823,-1.2823,-1.2822,0,-1.1763,-1.1831,-1.1915,-1.2016,-1.2042,-1.2087,-1.2173,-1.222,-1.2274,-1.2346,-1.2367,-1.2453,-1.2531,-1.2602,-1.2705,-1.2739,-1.2815,-1.2831,-1.2787,-1.2794,-1.2815,-1.2812,-1.2869,-1.288,-1.2866,-1.2867,-1.2867,0,-1.1779,-1.1824,-1.1929,-1.1971,-1.2019,-1.2085,-1.2134,-1.2204,-1.2253,-1.2348,-1.2383,-1.2464,-1.2533,-1.2654,-1.2726,-1.2805,-1.2824,-1.2839,-1.2837,-1.2818,-1.2825,-1.2822,-1.2827,-1.2838,-1.2838,-1.2838,-1.2837,0,-1.18,-1.1831,-1.1899,-1.1978,-1.2035,-1.2101,-1.2169,-1.22,-1.2283,-1.2336,-1.2415,-1.2468,-1.2573,-1.2653,-1.274,-1.2792,-1.2829,-1.2837,-1.2847,-1.283,-1.2803,-1.2818,-1.2785,-1.2836,-1.2836,-1.2836,-1.2836,-1.2836,-1.1804,-1.1847,-1.1927,-1.2001,-1.2059,-1.2122,-1.217,-1.2231,-1.2298,-1.2388,-1.2426,-1.2506,-1.2586,-1.2707,-1.2758,-1.2823,-1.283,-1.2844,-1.2848,-1.2851,-1.2847,-1.2792,-1.2839,-1.2839,-1.2839,-1.2839,-1.2839,0,-1.1828,-1.1883,-1.1949,-1.2042,-1.21,-1.2129,-1.2206,-1.2253,-1.2323,-1.2393,-1.246,-1.2551,-1.2629,-1.2707,-1.2789,-1.2826,-1.2845,-1.2845,-1.2843,-1.2855,-1.2836,-1.2819,-1.2828,-1.2828,-1.2828,-1.2828,-1.2828,-1.2828,-1.1848,-1.1922,-1.1963,-1.2066,-1.2121,-1.2199,-1.2241,-1.2299,-1.2355,-1.2455,-1.2519,-1.2569,-1.2643,-1.2731,-1.2804,-1.2826,-1.2854,-1.2849,-1.2875,-1.2856,-1.2856,-1.2856,-1.2841,-1.2854,-1.2855,-1.2889,-1.2889,-1.2889]}]]